This is the latest recevied weather packets stored in our database for station/object W5DRO-13. If no packets are shown the sender has not sent any weather packets the latest 10 day(s).
| Time | Temp. | Humidity | Pressure | Rain* | Wind** | Luminosity | Snow |
|---|---|---|---|---|---|---|---|
| 1777651524 | 20.56° C | 51% | 1020.3 hPa | 0 mm | - | - | - |
| 1777651221 | 20.56° C | 52% | 1020.3 hPa | 0 mm | - | - | - |
| 1777650918 | 20.56° C | 53% | 1020.3 hPa | 0 mm | - | - | - |
| 1777650615 | 20° C | 54% | 1020.3 hPa | 0 mm | - | - | - |
| 1777650313 | 20° C | 51% | 1020.3 hPa | 0 mm | - | - | - |
| 1777650009 | 19.44° C | 54% | 1020.5 hPa | 0 mm | - | - | - |
| 1777649707 | 20° C | 57% | 1020.3 hPa | 0 mm | - | - | - |
| 1777649402 | 19.44° C | 56% | 1020.4 hPa | 0 mm | - | - | - |
| 1777649100 | 18.33° C | 60% | 1020.3 hPa | 0 mm | - | - | - |
| 1777648797 | 18.33° C | 60% | 1020.5 hPa | 0 mm | - | - | - |
| 1777648494 | 17.78° C | 61% | 1020.3 hPa | 0 mm | - | - | - |
| 1777648190 | 17.22° C | 61% | 1020.5 hPa | 0 mm | - | - | - |
| 1777647886 | 17.78° C | 63% | 1020.5 hPa | 0 mm | - | - | - |
| 1777647583 | 17.22° C | 63% | 1020.4 hPa | 0 mm | - | - | - |
| 1777647279 | 17.22° C | 63% | 1020.4 hPa | 0 mm | - | - | - |
| 1777646977 | 16.67° C | 67% | 1020.5 hPa | 0 mm | - | - | - |
| 1777646672 | 16.11° C | 66% | 1020.3 hPa | 0 mm | - | - | - |
| 1777646368 | 16.11° C | 68% | 1020.5 hPa | 0 mm | - | - | - |
| 1777646065 | 15° C | 71% | 1020.4 hPa | 0 mm | - | - | - |
| 1777645761 | 14.44° C | 73% | 1020.4 hPa | 0 mm | - | - | - |
| 1777645459 | 13.89° C | 75% | 1020.4 hPa | 0 mm | - | - | - |
| 1777645154 | 13.89° C | 75% | 1020.2 hPa | 0 mm | - | - | - |
| 1777644851 | 13.89° C | 74% | 1020.1 hPa | 0 mm | - | - | - |
| 1777644549 | 13.89° C | 74% | 1020.1 hPa | 0 mm | - | - | - |
| 1777644245 | 13.89° C | 76% | 1020.1 hPa | 0 mm | - | - | - |
* Rain latest hour (hover to see other rain measurements)
** Current wind speed in m/s (hover to see current wind gust speed)